| time (UTC) | temp F | wind direction | speed MPH | gust MPH | rain 1hr in | rain 24hr in | rain mn in | humidity % | barometer mb |
| 20260503235519 | 69 | 313 | 6.0 | 9.0 | 0.00 | 0.01 | 0.01 | 33 | 1004.8 |
| 20260503234519 | 69 | 280 | 5.0 | 9.0 | 0.00 | 0.01 | 0.01 | 33 | 1004.7 |
| 20260503233549 | 69 | 301 | 6.0 | 10.0 | 0.00 | 0.01 | 0.01 | 35 | 1004.6 |
| 20260503232519 | 69 | 281 | 6.0 | 11.0 | 0.00 | 0.01 | 0.01 | 36 | 1004.7 |
| 20260503231519 | 70 | 292 | 7.0 | 12.0 | 0.00 | 0.01 | 0.01 | 34 | 1004.6 |
| 20260503230519 | 70 | 290 | 6.0 | 9.0 | 0.00 | 0.01 | 0.01 | 34 | 1004.6 |
| 20260503225519 | 70 | 304 | 6.0 | 11.0 | 0.00 | 0.01 | 0.01 | 33 | 1004.4 |
| 20260503224532 | 70 | 323 | 5.0 | 10.0 | 0.00 | 0.01 | 0.01 | 32 | 1004.5 |
| 20260503223520 | 70 | 304 | 6.0 | 12.0 | 0.00 | 0.01 | 0.01 | 33 | 1004.5 |
| 20260503222532 | 70 | 280 | 6.0 | 9.0 | 0.00 | 0.01 | 0.01 | 34 | 1004.4 |
| 20260503221520 | 0 | 294 | 5.0 | 8.0 | 0.00 | 0.01 | 0.01 | ||
| 20260503220521 | 69 | 318 | 7.0 | 13.0 | 0.00 | 0.01 | 0.01 | 33 | 1004.5 |
| 20260503215541 | 70 | 319 | 7.0 | 11.0 | 0.00 | 0.01 | 0.01 | 32 | 1004.5 |
| 20260503214543 | 0 | 297 | 7.0 | 12.0 | 0.00 | 0.01 | 0.01 | ||
| 20260503213533 | 70 | 282 | 8.0 | 16.0 | 0.00 | 0.01 | 0.01 | 33 | 1004.7 |
| 20260503212541 | 70 | 330 | 6.0 | 10.0 | 0.00 | 0.01 | 0.01 | 35 | 1004.6 |
| 20260503211519 | 70 | 315 | 5.0 | 9.0 | 0.00 | 0.01 | 0.01 | 36 | 1004.5 |
| 20260503210519 | 70 | 321 | 7.0 | 12.0 | 0.00 | 0.01 | 0.01 | 35 | 1004.6 |
| 20260503205518 | 70 | 280 | 6.0 | 13.0 | 0.00 | 0.01 | 0.01 | 36 | 1004.6 |
| 20260503204518 | 70 | 303 | 8.0 | 12.0 | 0.00 | 0.01 | 0.01 | 36 | 1004.7 |
| 20260503203542 | 69 | 282 | 8.0 | 13.0 | 0.00 | 0.01 | 0.01 | 35 | 1004.7 |
| 20260503202519 | 70 | 322 | 6.0 | 11.0 | 0.00 | 0.01 | 0.01 | 38 | 1004.8 |
| 20260503201525 | 70 | 303 | 7.0 | 11.0 | 0.00 | 0.01 | 0.01 | 38 | 1005.0 |
| 20260503200523 | 69 | 280 | 7.0 | 12.0 | 0.00 | 0.01 | 0.01 | 41 | 1004.9 |
| 20260503195558 | 69 | 296 | 8.0 | 12.0 | 0.00 | 0.01 | 0.01 | 40 | 1004.9 |
| 20260503194520 | 69 | 303 | 6.0 | 10.0 | 0.00 | 0.01 | 0.01 | 41 | 1005.0 |
| 20260503193518 | 68 | 314 | 6.0 | 14.0 | 0.00 | 0.01 | 0.01 | 43 | 1005.0 |
| 20260503192520 | 68 | 310 | 7.0 | 12.0 | 0.00 | 0.01 | 0.01 | 43 | 1005.0 |
| 20260503191540 | 68 | 289 | 7.0 | 12.0 | 0.00 | 0.01 | 0.01 | 42 | 1005.1 |
| 20260503190520 | 68 | 333 | 6.0 | 11.0 | 0.00 | 0.01 | 0.01 | 42 | 1005.1 |
| 20260503185537 | 68 | 325 | 4.0 | 9.0 | 0.00 | 0.01 | 0.01 | 44 | 1005.2 |
| 20260503184538 | 67 | 304 | 7.0 | 11.0 | 0.00 | 0.01 | 0.01 | 44 | 1005.3 |
| 20260503183521 | 67 | 283 | 6.0 | 13.0 | 0.00 | 0.01 | 0.01 | 45 | 1005.3 |
| 20260503182522 | 66 | 285 | 6.0 | 12.0 | 0.00 | 0.01 | 0.01 | 46 | 1005.5 |
| 20260503181525 | 66 | 283 | 6.0 | 11.0 | 0.00 | 0.01 | 0.01 | 47 | 1005.6 |
| 20260503180533 | 66 | 252 | 6.0 | 9.0 | 0.00 | 0.01 | 0.01 | 47 | 1005.7 |
| 20260503175539 | 65 | 229 | 5.0 | 11.0 | 0.00 | 0.01 | 0.01 | 47 | 1005.7 |
| 20260503174522 | 65 | 244 | 6.0 | 13.0 | 0.00 | 0.01 | 0.01 | 48 | 1005.7 |
| 20260503173519 | 64 | 239 | 3.0 | 7.0 | 0.00 | 0.01 | 0.01 | 49 | 1005.7 |
| 20260503172519 | 63 | 216 | 5.0 | 11.0 | 0.00 | 0.01 | 0.01 | 49 | 1005.7 |
| 20260503171520 | 63 | 212 | 7.0 | 10.0 | 0.00 | 0.01 | 0.01 | 49 | 1005.9 |
| 20260503170540 | 62 | 248 | 5.0 | 10.0 | 0.00 | 0.01 | 0.01 | 50 | 1006.1 |
| 20260503150519 | 56 | 231 | 9.0 | 14.0 | 0.00 | 0.01 | 0.01 | 54 | 1006.6 |
| 20260503130541 | 54 | 199 | 9.0 | 15.0 | 0.00 | 0.01 | 0.01 | 56 | 1007.4 |
| 20260503110522 | 52 | 191 | 6.0 | 10.0 | 0.01 | 0.01 | 0.01 | 67 | 1008.1 |
| 20260503081557 | 0 | 198 | 5.0 | 7.0 | 0.00 | 0.00 | 0.00 | ||
| 20260503080519 | 51 | 216 | 6.0 | 9.0 | 0.00 | 0.00 | 0.00 | 56 | 1010.2 |
| 20260503072524 | 51 | 208 | 8.0 | 11.0 | 0.00 | 0.00 | 0.00 | 52 | 1010.4 |
| 20260503071519 | 51 | 212 | 8.0 | 12.0 | 0.00 | 0.00 | 0.00 | 53 | 1010.6 |
| 20260503070541 | 51 | 211 | 6.0 | 12.0 | 0.00 | 0.00 | 0.00 | 53 | 1010.7 |
| 20260503054520 | 50 | 207 | 5.0 | 9.0 | 0.00 | 0.00 | 0.00 | 56 | 1011.2 |
| 20260503053520 | 49 | 211 | 4.0 | 9.0 | 0.00 | 0.00 | 0.00 | 56 | 1011.4 |
| 20260503052520 | 49 | 204 | 4.0 | 8.0 | 0.00 | 0.00 | 0.00 | 56 | 1011.6 |
| 20260503051520 | 48 | 212 | 3.0 | 6.0 | 0.00 | 0.00 | 0.00 | 58 | 1011.7 |
| 20260503050540 | 48 | 210 | 3.0 | 6.0 | 0.00 | 0.00 | 0.00 | 59 | 1011.7 |
| 20260503045518 | 49 | 201 | 3.0 | 5.0 | 0.00 | 0.00 | 0.00 | 57 | 1011.7 |
| 20260503044520 | 49 | 201 | 3.0 | 6.0 | 0.00 | 0.00 | 0.00 | 58 | 1011.8 |
| 20260503043527 | 49 | 199 | 3.0 | 6.0 | 0.00 | 0.00 | 0.00 | 57 | 1011.8 |
| 20260503042522 | 50 | 195 | 3.0 | 5.0 | 0.00 | 0.00 | 0.00 | 56 | 1011.9 |
| 20260503041538 | 50 | 199 | 3.0 | 7.0 | 0.00 | 0.00 | 0.00 | 56 | 1012.0 |
| 20260503040519 | 50 | 201 | 3.0 | 5.0 | 0.00 | 0.00 | 0.00 | 56 | 1012.1 |
| 20260503035524 | 50 | 199 | 3.0 | 8.0 | 0.00 | 0.00 | 0.00 | 56 | 1012.2 |
| 20260503034539 | 51 | 208 | 3.0 | 6.0 | 0.00 | 0.00 | 0.00 | 55 | 1012.4 |
| 20260503033519 | 51 | 194 | 3.0 | 5.0 | 0.00 | 0.00 | 0.00 | 53 | 1012.6 |
| 20260503032539 | 51 | 199 | 3.0 | 5.0 | 0.00 | 0.00 | 0.00 | 53 | 1012.6 |
| 20260503031525 | 52 | 209 | 3.0 | 5.0 | 0.00 | 0.00 | 0.00 | 53 | 1012.7 |
| 20260503030541 | 52 | 200 | 2.0 | 4.0 | 0.00 | 0.00 | 0.00 | 52 | 1012.9 |
| 20260503025522 | 52 | 204 | 2.0 | 4.0 | 0.00 | 0.00 | 0.00 | 50 | 1012.9 |
| 20260503024603 | 53 | 209 | 2.0 | 4.0 | 0.00 | 0.00 | 0.00 | 50 | 1013.0 |
| 20260503023538 | 53 | 213 | 2.0 | 3.0 | 0.00 | 0.00 | 0.00 | 50 | 1013.0 |
| 20260503022527 | 0 | 212 | 3.0 | 5.0 | 0.00 | 0.00 | 0.00 | ||
| 20260503021529 | 54 | 207 | 3.0 | 5.0 | 0.00 | 0.00 | 0.00 | 49 | 1013.0 |
| 20260503020520 | 54 | 214 | 3.0 | 4.0 | 0.00 | 0.00 | 0.00 | 47 | 1013.0 |
| 20260503015520 | 54 | 222 | 2.0 | 3.0 | 0.00 | 0.00 | 0.00 | 47 | 1013.0 |
| 20260503014521 | 55 | 226 | 3.0 | 4.0 | 0.00 | 0.00 | 0.00 | 47 | 1013.0 |
| 20260503013527 | 55 | 233 | 3.0 | 5.0 | 0.00 | 0.00 | 0.00 | 45 | 1012.9 |
| 20260503012518 | 56 | 224 | 3.0 | 5.0 | 0.00 | 0.00 | 0.00 | 45 | 1012.9 |
| 20260503011518 | 56 | 239 | 3.0 | 5.0 | 0.00 | 0.00 | 0.00 | 44 | 1012.9 |
| 20260503010519 | 57 | 247 | 3.0 | 6.0 | 0.00 | 0.00 | 0.00 | 43 | 1013.0 |
| 20260503005522 | 57 | 241 | 4.0 | 7.0 | 0.00 | 0.00 | 0.00 | 43 | 1013.0 |
| 20260503004534 | 0 | 240 | 4.0 | 7.0 | 0.00 | 0.00 | 0.00 | ||
| 20260503003531 | 58 | 255 | 6.0 | 10.0 | 0.00 | 0.00 | 0.00 | 42 | 1013.0 |
| 20260503002542 | 59 | 256 | 6.0 | 9.0 | 0.00 | 0.00 | 0.00 | 39 | 1013.0 |
| 20260503001539 | 59 | 246 | 5.0 | 9.0 | 0.00 | 0.00 | 0.00 | 39 | 1013.1 |
| 20260503000539 | 60 | 242 | 5.0 | 10.0 | 0.00 | 0.00 | 0.00 | 38 | 1013.1 |